[[{"header":{"parameterUnit":"m.s-1","parameterCategory":1,"la1":30.2991,"la2":30.254,"lo1":-89.0895,"lo2":-89.0444,"dy":0.0017,"dx":0.0017,"nx":28,"ny":28,"refTime":"2025-03-03T03:00:00:Z","depth":0,"parameterNumber":2,"parameterNumberName":"U-component_of_WINDS"},"data":[0,0,0,0,0,0,0,0,0,0,0,0,0,0,0,0,0,0,0,0,0,0,0,0,0,0,0,0,0,0,0,0,0,0,0,0,0,0,0,0,0,0,0,0,0,0,0,0,0,0,0,0,0,0,0,0,0,0,-5.0281,-5.0281,0,-5.0294,-5.0294,-5.0294,-5.0247,-5.0246,-5.0244,-5.0243,-5.0257,-5.0259,-5.026,0,0,0,0,0,0,0,0,0,0,0,0,0,-5.0218,-5.022,-5.0281,-5.0281,-5.0281,-5.0294,-5.0294,-5.0294,-5.0247,-5.0246,-5.0244,-5.0242,-5.0256,-5.0258,-5.026,0,0,0,0,0,0,0,0,0,0,0,0,0,-5.024,-5.022,-5.0281,-5.0259,-5.0258,-5.0294,-5.0294,-5.0294,-5.0248,-5.0246,-5.0243,-5.0241,-5.0256,-5.0258,-5.0261,-5.0319,0,0,-5.0268,-5.0269,0,0,0,0,0,0,0,0,-5.0239,-5.0242,-5.0262,-5.0261,-5.0259,-5.0267,-5.0277,-5.0303,-5.0248,-5.0251,-5.0243,-5.024,-5.0262,-5.0264,-5.0271,-5.0319,-5.032,-5.0269,-5.027,-5.0271,-5.0272,0,0,0,0,0,0,0,-5.0237,-5.0242,-5.0286,-5.0263,-5.0261,-5.025,-5.0251,-5.0282,-5.0268,-5.0251,-5.0248,-5.025,-5.0261,-5.0269,-5.0271,-5.032,-5.0269,-5.0271,-5.0272,-5.0273,-5.042,-5.0422,0,0,0,0,0,0,-5.0239,-5.0241,-5.0286,-5.0287,-5.0243,-5.0253,-5.0254,-5.0266,-5.0268,-5.0266,-5.0252,-5.0248,-5.0265,-5.0268,-5.0271,-5.0339,-5.0271,-5.0274,-5.0275,-5.0417,-5.042,-5.0423,0,0,0,0,0,0,-5.0237,-5.0243,-5.0285,-5.0263,-5.0267,-5.0256,-5.0271,-5.0268,-5.0275,-5.0268,-5.0266,-5.0262,-5.0264,-5.0268,-5.0308,-5.0339,-5.0275,-5.0277,-5.0415,-5.0418,-5.0421,-5.0476,0,0,0,0,0,0,-5.0236,-5.0243,-5.0263,-5.0264,-5.0269,-5.032,-5.0273,-5.027,-5.028,-5.0275,-5.0277,-5.0276,-5.0262,-5.0304,-5.031,-5.0342,-5.0279,-5.0412,-5.0416,-5.042,-5.0472,-5.0481,-5.049,0,0,0,0,0,-5.0234,-5.0278,-5.0265,-5.027,-5.0294,-5.0322,-5.0325,-5.0308,-5.0283,-5.0304,-5.03,-5.0276,-5.0336,-5.0309,-5.0315,-5.0348,-5.0409,-5.0415,-5.042,-5.0468,-5.048,-5.049,0,0,0,0,0,0,-5.0281,-5.0277,-5.0262,-5.0308,-5.0316,-5.0314,-5.034,-5.0321,-5.0336,-5.0331,-5.0311,-5.0312,-5.0356,-5.0356,-5.0326,-5.0406,-5.0368,-5.0375,-5.0402,-5.0414,-5.0423,-5.042,-5.0281,0,0,0,0,0,-5.0297,-5.0319,-5.0315,-5.0356,-5.0361,-5.0351,-5.0362,-5.0349,-5.0356,-5.0359,-5.0358,-5.0366,-5.0387,-5.0401,-5.042,-5.0474,-5.0474,-5.05,-5.0509,-5.0516,-5.0521,-5.0551,-5.0562,-5.044,-5.044,-5.044,0,0,-5.0329,-5.033,-5.0345,-5.0366,-5.037,-5.0395,-5.0353,-5.038,-5.0398,-5.0363,-5.04,-5.0401,-5.0409,-5.0457,-5.0477,-5.0458,-5.0556,-5.0523,-5.0529,-5.053,-5.0557,-5.0569,-5.0579,-5.0444,-5.0443,-5.0443,0,0,-5.04,-5.0404,-5.0438,-5.0444,-5.0452,-5.0446,-5.0455,-5.0457,-5.0456,-5.0494,-5.0468,-5.0491,-5.0527,-5.0534,-5.0543,-5.0623,-5.0601,-5.0631,-5.0676,-5.0705,-5.0715,-5.0723,-5.0751,-5.0761,-5.0636,-5.0637,-5.0637,0,-5.0439,-5.0473,-5.0458,-5.0488,-5.0498,-5.047,-5.0505,-5.0513,-5.0526,-5.0535,-5.0514,-5.0561,-5.0565,-5.0614,-5.0634,-5.0642,-5.0652,-5.0627,-5.0715,-5.0723,-5.073,-5.0757,-5.0767,-5.064,-5.0639,-5.0639,-5.0639,0,-5.0521,-5.0546,-5.0574,-5.0588,-5.0603,-5.0635,-5.0626,-5.0643,-5.0631,-5.0627,-5.0667,-5.0672,-5.0692,-5.0704,-5.0691,-5.0752,-5.074,-5.0718,-5.0679,-5.0746,-5.077,-5.078,-5.0645,-5.0643,-5.0642,-5.0642,0,0,-5.0616,-5.0626,-5.0635,-5.0643,-5.0652,-5.0672,-5.0706,-5.0725,-5.074,-5.0753,-5.078,-5.0814,-5.0794,-5.0804,-5.0794,-5.082,-5.0883,-5.0794,-5.0794,-5.0809,-5.095,-5.0965,-5.0977,-5.0871,-5.0873,-5.0874,-5.0949,0,-5.0684,-5.0739,-5.0729,-5.0783,-5.0807,-5.0783,-5.0813,-5.0823,-5.0822,-5.0843,-5.0843,-5.0866,-5.0839,-5.0845,-5.0871,-5.087,-5.0911,-5.0865,-5.0895,-5.0896,-5.089,-5.0989,-5.1004,-5.1074,-5.0959,-5.096,-5.0961,0,-5.0769,-5.0786,-5.0843,-5.0851,-5.0861,-5.0887,-5.0906,-5.0927,-5.0939,-5.0937,-5.0951,-5.0937,-5.0972,-5.0937,-5.0984,-5.0954,-5.0967,-5.0969,-5.0972,-5.0971,-5.093,-5.0989,-5.1096,-5.1106,-5.0977,-5.0975,-5.0974,0,-5.0831,-5.0868,-5.0907,-5.0915,-5.0926,-5.0945,-5.0951,-5.0961,-5.0975,-5.0993,-5.1002,-5.1024,-5.1036,-5.1054,-5.1047,-5.1022,-5.1097,-5.1061,-5.1095,-5.1096,-5.1108,-5.1107,-5.1216,-5.1122,-5.1122,-5.1122,-5.1121,0,-5.0906,-5.0941,-5.0935,-5.0959,-5.0999,-5.0989,-5.1029,-5.1032,-5.1043,-5.1067,-5.1051,-5.1074,-5.1065,-5.109,-5.1085,-5.1126,-5.1132,-5.1131,-5.1128,-5.113,-5.113,-5.1136,-5.1129,-5.1124,-5.1124,-5.1123,-5.1123,0,-5.0979,-5.0976,-5.1017,-5.1026,-5.103,-5.1059,-5.1067,-5.109,-5.109,-5.1122,-5.1129,-5.113,-5.1158,-5.1154,-5.1185,-5.1182,-5.1232,-5.1226,-5.1227,-5.1225,-5.1259,-5.1255,-5.1373,-5.1388,-5.1287,-5.1288,-5.1289,0,-5.1025,-5.1052,-5.1065,-5.1081,-5.1088,-5.1113,-5.1128,-5.1122,-5.1138,-5.1157,-5.1178,-5.1205,-5.1225,-5.1272,-5.1275,-5.13,-5.1292,-5.1332,-5.1295,-5.1297,-5.129,-5.1287,-5.129,-5.1337,-5.1339,-5.134,-5.134,0,-5.1107,-5.1106,-5.1127,-5.115,-5.1169,-5.1186,-5.1202,-5.1217,-5.1212,-5.1232,-5.126,-5.1277,-5.131,-5.1337,-5.1361,-5.1368,-5.1354,-5.1353,-5.1362,-5.1362,-5.1361,-5.1361,-5.1244,-5.1349,-5.1348,-5.1347,-5.1347,-5.1347,-5.1166,-5.119,-5.1203,-5.1229,-5.1241,-5.1258,-5.128,-5.1285,-5.1309,-5.1335,-5.1331,-5.1363,-5.1379,-5.141,-5.142,-5.1447,-5.1432,-5.1445,-5.1448,-5.1451,-5.1454,-5.1361,-5.1451,-5.1451,-5.1451,-5.1451,-5.1451,0,-5.1245,-5.1254,-5.1279,-5.1302,-5.1324,-5.1311,-5.1329,-5.1348,-5.1376,-5.1393,-5.1414,-5.1449,-5.1476,-5.1484,-5.1511,-5.1531,-5.1525,-5.1538,-5.1534,-5.1537,-5.1466,-5.1455,-5.1542,-5.1542,-5.1542,-5.1542,-5.1542,-5.1542,-5.1289,-5.1328,-5.1329,-5.1376,-5.1385,-5.1416,-5.1428,-5.1444,-5.1457,-5.1496,-5.1519,-5.1525,-5.1538,-5.1567,-5.1592,-5.1594,-5.1603,-5.1619,-5.1618,-5.1551,-5.1541,-5.1532,-5.1521,-5.1621,-5.1622,-5.1685,-5.1686,-5.1686]},{"header":{"parameterUnit":"m.s-1","parameterCategory":1,"la1":30.2991,"la2":30.254,"lo1":-89.0895,"lo2":-89.0444,"dy":0.0017,"dx":0.0017,"nx":28,"ny":28,"refTime":"2025-03-03T03:00:00:Z","depth":0,"parameterNumber":3,"parameterNumberName":"V-component_of_WINDS"},"data":[0,0,0,0,0,0,0,0,0,0,0,0,0,0,0,0,0,0,0,0,0,0,0,0,0,0,0,0,0,0,0,0,0,0,0,0,0,0,0,0,0,0,0,0,0,0,0,0,0,0,0,0,0,0,0,0,0,0,2.5074,2.5075,0,2.5143,2.5144,2.5145,2.5232,2.5233,2.5235,2.5236,2.5301,2.5302,2.5302,0,0,0,0,0,0,0,0,0,0,0,0,0,2.5016,2.5016,2.5074,2.5075,2.5076,2.5143,2.5144,2.5145,2.5232,2.5233,2.5235,2.5237,2.5301,2.5302,2.5302,0,0,0,0,0,0,0,0,0,0,0,0,0,2.5058,2.5016,2.5074,2.5128,2.5133,2.5143,2.5144,2.5145,2.5231,2.5233,2.5236,2.5238,2.5301,2.5302,2.5302,2.5264,0,0,2.5304,2.5304,0,0,0,0,0,0,0,0,2.5056,2.506,2.5119,2.5124,2.513,2.5181,2.5148,2.5185,2.5231,2.5194,2.5236,2.5239,2.5259,2.5263,2.5272,2.5267,2.527,2.5304,2.5305,2.5305,2.5305,0,0,0,0,0,0,0,2.5053,2.5058,2.5102,2.512,2.5126,2.5147,2.5156,2.5155,2.5214,2.5197,2.5204,2.5211,2.5263,2.5271,2.5274,2.5271,2.5304,2.5305,2.5305,2.5305,2.5242,2.524,0,0,0,0,0,0,2.5042,2.5055,2.5099,2.5104,2.5098,2.5147,2.5156,2.5163,2.5214,2.5224,2.5209,2.5215,2.5269,2.5273,2.5276,2.5238,2.5305,2.5305,2.5306,2.5244,2.5241,2.5239,0,0,0,0,0,0,2.5041,2.5045,2.5097,2.5081,2.5089,2.5146,2.5152,2.5163,2.5171,2.5223,2.5234,2.5207,2.527,2.5275,2.5268,2.5241,2.5306,2.5306,2.5246,2.5243,2.524,2.5157,0,0,0,0,0,0,2.5039,2.5044,2.503,2.508,2.509,2.5087,2.515,2.5163,2.5173,2.5181,2.5224,2.5233,2.5273,2.5266,2.5268,2.5243,2.5307,2.5249,2.5245,2.5241,2.5163,2.5152,2.5142,0,0,0,0,0,2.5036,2.5002,2.5029,2.5034,2.5074,2.5085,2.5091,2.5139,2.517,2.5157,2.5191,2.5231,2.5244,2.5265,2.5268,2.5242,2.5251,2.5246,2.5242,2.5167,2.5154,2.5143,0,0,0,0,0,0,2.4945,2.501,2.504,2.5022,2.5048,2.51,2.5084,2.5122,2.5138,2.5145,2.5203,2.5212,2.5197,2.5219,2.5241,2.521,2.5253,2.5249,2.5196,2.5184,2.5174,2.5169,2.5307,0,0,0,0,0,2.4923,2.4928,2.4984,2.4962,2.4974,2.5027,2.5033,2.5069,2.5097,2.5108,2.5141,2.5166,2.5176,2.5181,2.5193,2.5167,2.5178,2.5151,2.5141,2.5132,2.5127,2.5118,2.5107,2.5224,2.5224,2.5224,0,0,2.4877,2.4913,2.4912,2.4945,2.4969,2.4973,2.5035,2.5035,2.5039,2.5107,2.5103,2.5129,2.516,2.5144,2.5138,2.5162,2.5098,2.5126,2.5119,2.5119,2.5112,2.5101,2.5091,2.5221,2.5221,2.5222,0,0,2.4796,2.4823,2.4809,2.4834,2.4871,2.4907,2.4904,2.4951,2.4972,2.4969,2.5022,2.5026,2.5041,2.5063,2.5075,2.5007,2.5045,2.5009,2.4955,2.4946,2.4936,2.4929,2.4906,2.4897,2.5004,2.5004,2.5004,0,2.4733,2.4742,2.4797,2.4796,2.4809,2.4875,2.4862,2.4882,2.492,2.4928,2.4954,2.4977,2.5003,2.4994,2.4978,2.4985,2.4984,2.5004,2.4934,2.4926,2.492,2.4899,2.489,2.4999,2.5,2.5,2.5001,0,2.4665,2.467,2.4654,2.4693,2.4705,2.4697,2.4751,2.4757,2.4792,2.4825,2.4823,2.4857,2.4878,2.4879,2.4911,2.4875,2.4889,2.4923,2.4968,2.4903,2.4884,2.4877,2.4993,2.4994,2.4996,2.4997,0,0,2.4525,2.4598,2.4591,2.4611,2.4658,2.4663,2.466,2.4683,2.4687,2.4712,2.4711,2.4725,2.4758,2.4773,2.4809,2.48,2.4747,2.4837,2.4839,2.482,2.4711,2.4685,2.4675,2.4773,2.4772,2.4771,2.4709,0,2.4453,2.4452,2.4504,2.4488,2.4495,2.456,2.4557,2.4586,2.4617,2.4627,2.4662,2.4672,2.4714,2.4724,2.4719,2.4754,2.4726,2.4759,2.4772,2.4772,2.4763,2.4665,2.4637,2.4577,2.4702,2.4701,2.47,0,2.4368,2.4392,2.4378,2.4431,2.4435,2.4432,2.4459,2.4468,2.4503,2.4527,2.4545,2.4588,2.4588,2.4632,2.4634,2.4656,2.4664,2.4683,2.4682,2.4685,2.4732,2.4666,2.4559,2.455,2.4688,2.4689,2.469,0,2.427,2.4298,2.4295,2.431,2.4369,2.4366,2.439,2.4428,2.444,2.4463,2.4472,2.4494,2.4506,2.4523,2.4571,2.4598,2.4568,2.4614,2.4588,2.4586,2.4578,2.4578,2.4471,2.4582,2.4582,2.4583,2.4583,0,2.4185,2.4174,2.4252,2.425,2.4241,2.43,2.4289,2.4319,2.4353,2.4358,2.4414,2.4417,2.448,2.449,2.4528,2.4525,2.4529,2.4549,2.4559,2.4544,2.4542,2.4551,2.4556,2.458,2.4581,2.4581,2.4582,0,2.4073,2.4124,2.4125,2.4184,2.4198,2.4189,2.4238,2.4239,2.4276,2.4281,2.4286,2.4343,2.4359,2.4409,2.4435,2.4461,2.4447,2.4466,2.4436,2.4443,2.4414,2.4416,2.4309,2.4299,2.4415,2.4414,2.4413,0,2.4015,2.4009,2.4068,2.4077,2.41,2.4112,2.4126,2.4185,2.4196,2.4238,2.4234,2.4254,2.4274,2.4296,2.4339,2.4361,2.4381,2.4343,2.4385,2.4371,2.4382,2.4383,2.4383,2.4333,2.4332,2.433,2.4329,0,2.3908,2.3935,2.3953,2.3982,2.3997,2.4022,2.4049,2.4053,2.4119,2.4129,2.4148,2.4163,2.4193,2.4213,2.4243,2.4268,2.4309,2.4316,2.4311,2.4296,2.428,2.429,2.4412,2.4318,2.4319,2.432,2.432,2.4321,2.3822,2.3821,2.3864,2.3883,2.3911,2.3937,2.3941,2.398,2.3997,2.4028,2.4061,2.4076,2.4114,2.4158,2.418,2.4193,2.4215,2.4207,2.4206,2.4203,2.4197,2.4278,2.4198,2.4198,2.4199,2.4199,2.4199,0,2.3719,2.3751,2.3769,2.3807,2.3823,2.3864,2.3898,2.3908,2.3921,2.3954,2.3973,2.3995,2.4016,2.4063,2.4088,2.4089,2.4109,2.4094,2.4094,2.41,2.4175,2.4177,2.4077,2.4077,2.4077,2.4077,2.4077,2.4077,2.3668,2.3669,2.3702,2.3718,2.375,2.3766,2.3782,2.3807,2.3834,2.3857,2.3875,2.3906,2.3945,2.3974,2.3996,2.4009,2.4016,2.3994,2.4013,2.4082,2.4094,2.4105,2.4108,2.3995,2.3995,2.3938,2.3938,2.3937]}]]